Location: McLaughlin
(0.0000°N, 0.0000°E)
Time: 17:40:58
(UTC+00:00)

Envisat - Pass Details

Date: 22 June 2019
Orbit: 764 x 766 km, 98.1° (Epoch: 18 July)

Event Time Altitude Azimuth Distance (km) Brightness Sun altitude
Rises 19:50:59 0° 200° (SSW) 3,231 6.2 -24.8°
Reaches altitude 10° 19:54:12 10° 222° (SW) 2,302 5.6 -25.5°
Maximum altitude 19:57:07 15° 257° (WSW) 1,946 5.7 -26.2°
Drops below altitude 10° 20:00:02 10° 293° (WNW) 2,297 6.5 -26.9°
Sets 20:03:16 0° 315° (NW) 3,219 7.3 -27.6°
